Dewpoint
58 58 58 59 59 59 59 59 58 58 58 58 58 58 59 60 60 60 60 60 59 59 60 60 60 59 59 59 59 59 59 58 55 59 61 62 60 60 61 62 62 61 60
58 58 58 58 58 58 58 57 57 57 58 58 58 58 58 59 60 60 60 60 59 59 60 60 60 60 59 59 60 59 58 59 57 58 58 57 58 59 59 59 59 60 59
58 58 58 58 58 58 57 57 58 57 57 57 57 58 60 60 60 60 60 60 59 60 60 60 60 60 59 59 59 59 59 59 60 57 55 57 57 58 57 58 57 57 58
58 57 57 58 57 58 57 57 57 57 56 57 60 60 61 61 61 62 62 61 59 60 60 60 60 60 59 59 59 59 59 58 58 56 55 55 55 56 56 55 55 57 56
58 58 58 58 58 58 57 56 57 57 56 61 60 59 59 59 57 59 60 60 60 60 61 60 61 60 58 58 58 59 58 57 56 55 54 54 54 54 54 55 54 55 55
58 58 59 59 58 58 58 56 57 56 59 60 59 58 57 57 47 51 58 61 60 60 60 59 59 57 55 54 54 55 57 57 55 55 54 53 54 54 54 54 54 53 51
58 59 60 59 58 58 57 56 57 57 60 59 58 57 56 56 45 50 53 60 60 60 59 59 58 57 56 56 52 52 52 52 54 55 55 54 55 55 55 54 54 54 52
58 59 59 58 58 58 57 56 57 60 60 59 57 56 56 55 46 50 51 61 60 60 59 58 58 57 56 57 58 57 57 57 57 57 56 56 55 56 56 54 54 53 51
58 59 59 58 57 58 56 57 58 59 59 57 56 55 57 57 47 49 56 60 60 59 59 59 58 57 48 49 57 56 56 55 51 49 49 48 47 49 53 54 52 51 50
57 58 58 57 56 57 57 57 58 58 58 57 56 56 54 57 46 48 57 60 58 58 58 57 51 54 46 49 57 56 55 55 55 55 54 51 52 51 51 55 54 51 50
57 57 58 57 57 57 57 58 58 58 58 57 56 56 57 56 53 46 51 60 58 57 57 56 54 45 45 46 51 57 55 55 53 55 55 55 55 56 55 55 56 52 50
57 57 57 57 57 57 57 58 58 58 58 56 56 57 57 57 49 46 46 51 54 57 57 56 49 43 43 44 52 44 46 52 55 54 55 54 54 54 55 54 56 55 54
56 57 57 58 58 58 58 58 57 58 57 56 56 56 56 57 55 44 43 45 49 58 57 50 42 41 42 45 43 44 49 55 55 55 54 54 55 55 55 55 55 55 55
56 57 57 58 57 58 58 58 57 57 57 56 56 56 56 57 57 55 54 53 49 51 49 50 48 47 47 48 51 55 55 55 55 55 54 54 55 55 55 55 55 54 53
56 57 57 57 58 58 57 57 58 58 57 57 57 56 56 56 57 52 53 56 57 52 53 56 56 56 55 55 56 56 56 55 54 54 54 54 54 55 56 57 56 54 52
56 56 57 57 57 57 56 53 42 46 47 48 48 54 56 49 43 43 43 42 44 46 56 56 56 56 56 55 56 56 56 54 55 54 54 53 53 53 55 56 55 56 55
56 57 57 56 57 56 55 55 55 49 43 44 43 46 49 47 41 41 41 42 42 49 57 57 56 56 56 56 56 56 55 56 56 54 53 53 53 54 54 55 56 55 54
56 50 57 57 57 56 55 55 55 53 53 54 44 46 42 40 40 40 40 45 54 53 57 56 56 57 57 57 56 56 56 56 56 56 55 54 55 54 55 55 56 56 55
56 56 57 57 57 55 55 53 52 51 52 54 52 47 41 38 38 39 42 56 56 56 56 56 56 56 57 57 56 56 57 56 56 56 56 56 55 55 55 54 54 47 50
56 51 53 57 57 56 55 53 51 50 51 53 55 55 49 50 53 52 51 54 55 56 55 56 56 56 57 57 56 56 56 56 56 57 56 56 56 56 55 55 54 54 54
53 54 51 57 57 57 56 54 53 51 50 50 54 53 43 55 55 56 54 54 55 55 55 55 56 56 56 57 57 57 57 56 56 56 56 56 57 56 57 56 56 56 56
52 53 53 55 56 56 57 56 55 53 51 50 50 50 38 54 56 56 56 56 56 57 56 56 55 56 56 56 56 57 56 56 56 56 56 56 56 57 57 56 57 57 57
52 52 53 54 54 52 55 56 56 55 54 52 51 48 48 52 55 56 56 57 57 57 58 57 57 56 56 57 57 56 56 56 56 56 56 56 55 55 56 56 56 56 55
53 53 53 53 53 51 52 54 54 51 55 55 54 53 49 50 52 55 57 57 57 57 58 58 58 58 58 58 57 57 57 56 56 56 56 55 55 53 54 54 54 54 55
51 53 54 54 53 53 55 53 51 51 53 54 55 55 54 52 51 52 54 56 57 57 57 57 58 58 58 58 58 58 53 44 54 51 56 56 55 56 55 54 54 54 54
46 46 49 51 52 54 55 56 57 57 55 54 52 52 55 55 53 53 53 55 55 56 56 57 57 57 58 57 57 53 45 42 47 42 55 57 56 56 56 55 55 53 53
Lifted_Index
-3 -2 -2 -1 -1 -1 -0 -0 1 1 2 2 2 2 1 1 0 0 -0 -0 0 0 0 -0 -1 -1 -0 -0 -0 -0 -0 0 0 1 0 -0 -1 -1 -0 -0 -1 -1 -1
-1 -1 -1 -1 -0 -0 0 1 1 2 2 2 2 2 1 1 0 0 -0 -0 -0 0 0 -0 -1 -1 -0 -0 -0 -0 -0 -0 0 0 -0 -0 -1 -1 -0 -0 -1 -0 -0
0 0 1 1 1 1 1 1 2 2 2 2 2 1 1 0 0 0 -0 -0 -0 -0 -0 -0 -0 -1 -0 -0 -0 -0 -0 -0 0 0 -0 -0 -0 -0 -0 -0 0 1 1
1 1 1 1 1 2 2 2 2 2 2 2 1 1 0 0 0 -0 -0 -0 0 -0 -0 -0 -0 -0 -0 -0 -0 -0 -0 0 0 0 1 1 0 0 0 1 1 2 2
2 2 1 1 2 2 2 2 2 2 2 1 1 1 0 0 0 0 0 0 0 0 0 -0 -0 -0 -0 -0 -0 -0 -0 0 1 1 1 1 1 1 1 1 1 2 3
1 1 1 1 1 2 2 2 2 2 1 1 1 1 1 0 0 0 0 0 1 1 0 0 -0 -0 -0 0 0 0 0 1 1 1 2 2 2 2 1 1 2 3 3
1 1 1 1 2 2 2 2 2 2 1 0 0 1 1 1 0 0 0 1 1 1 0 0 0 1 1 1 1 1 1 1 2 2 2 2 2 2 2 2 3 3 4
0 0 1 1 2 2 2 2 2 1 1 0 0 1 1 1 0 1 1 1 1 1 1 1 1 2 2 2 2 2 2 2 3 3 3 3 3 3 3 3 4 4 4
-0 0 1 2 2 2 2 2 2 1 1 1 1 1 1 0 0 1 1 1 1 1 1 1 2 3 3 3 3 3 3 3 4 4 4 4 4 4 4 4 4 4 4
-0 1 1 2 2 2 2 2 1 1 1 1 1 1 1 0 0 0 1 1 1 1 2 2 3 3 4 4 4 4 4 4 4 5 5 4 4 4 4 4 4 4 5
0 1 1 2 2 2 1 1 1 1 1 1 1 1 1 0 0 0 1 1 1 2 2 3 3 4 4 4 4 4 4 4 4 4 5 4 4 4 4 5 5 6 7
0 0 1 1 1 1 1 1 1 1 1 1 1 1 1 1 0 0 1 1 2 2 3 3 4 4 4 4 4 4 4 4 4 4 4 4 4 4 4 5 6 7 8
0 -0 -0 -0 0 0 1 1 1 1 1 1 1 1 1 1 1 1 1 1 2 2 3 3 4 4 4 4 4 4 4 4 4 4 4 4 4 4 5 5 6 7 8
-0 -0 -1 -1 -0 -0 0 0 0 0 1 1 1 1 2 2 1 1 1 2 2 2 3 3 3 4 4 4 4 4 4 4 4 4 4 4 4 5 5 6 6 7 7
-0 -1 -1 -1 -0 -0 0 0 0 0 1 1 1 2 2 2 1 1 1 2 2 2 3 3 3 4 4 4 4 4 4 4 4 4 4 5 5 5 5 5 5 5 6
-0 -0 -1 -1 -1 -0 0 0 0 1 1 1 1 1 2 2 1 1 1 2 2 2 3 3 3 3 3 3 3 3 3 3 4 4 5 5 5 5 5 4 4 4 4
1 0 -0 -1 -0 -0 0 1 1 1 1 1 1 1 1 1 1 1 1 2 2 2 2 2 3 3 3 3 3 3 3 3 3 4 4 5 5 5 5 4 4 3 3
1 0 -0 -0 -0 -0 0 1 1 1 1 0 0 0 1 1 1 1 1 1 2 2 2 2 2 2 2 3 3 3 3 3 3 3 4 4 4 4 4 4 3 3 3
1 1 0 -0 -0 -0 -0 0 1 1 1 1 0 -0 -0 0 1 1 1 1 2 2 2 2 2 2 2 2 2 2 2 2 2 3 3 3 3 3 3 3 3 3 3
1 1 0 -0 -0 -1 -1 -0 0 1 1 1 0 -0 -0 -0 0 1 1 1 1 2 2 2 2 2 2 2 2 2 2 2 2 2 2 2 3 3 3 3 3 3 2
1 1 1 0 -0 -0 -1 -1 -0 -0 0 0 0 -0 -1 -1 -0 0 0 1 1 1 1 1 1 2 2 2 2 2 2 2 2 2 2 2 2 2 2 2 2 2 1
0 0 0 0 0 0 -0 -1 -1 -0 -0 -0 0 -0 -0 -1 -1 -0 -0 0 0 0 0 1 1 1 1 2 2 2 2 2 2 2 2 2 2 2 2 1 1 1 1
-1 -1 -0 0 0 0 0 -0 -0 -0 -0 -0 0 0 0 -0 -0 -0 -0 -0 -0 -0 0 0 0 1 1 1 1 2 2 2 2 2 2 2 2 2 2 1 1 1 1
-2 -2 -1 -1 -0 -0 0 0 -0 -0 -0 0 0 0 0 0 0 0 -0 -0 -0 -0 -0 -0 0 0 1 1 1 1 1 2 2 2 2 2 2 2 2 2 1 1 1
-1 -1 -1 -1 -1 -1 -1 -1 -0 -0 -0 0 0 1 1 1 1 1 1 0 0 0 0 0 0 0 0 1 1 1 1 1 1 1 2 2 1 1 1 1 1 0 -0
-0 -1 -1 -2 -2 -2 -2 -1 -1 -1 -0 0 0 1 1 1 1 1 1 1 1 1 1 1 1 0 0 1 1 1 1 1 1 1 1 1 1 1 1 1 0 0 -0